Flag for U.S.A. Weather past 2 weeks in Toledo, Ohio, U.S.A.

Now
21 °F

Light snow. Mostly cloudy.


Feels Like: 10 °F
Forecast: 2 / 20 °F
Wind: 10 mph from Northeast

Location: Toledo Suburban Airport

Current Time: Feb 1, 2015 at 9:53:18 PM

Latest Report: Feb 1, 2015 at 9:15 PM


Visibility: 3 mi

Pressure: 29.65 "Hg

Humidity: 86%

Dew point: 18 °F

Location of ToledoLocation

Historic Weather in Toledo — Graph

°F

Toledo temperature yesterday

Maximum temperature yesterday: 36 °F (at 2:54 PM)
Minimum temperature yesterday: 14 °F (at 3:15 AM)
Average temperature yesterday: 27 °F

Past Weeks' High & Low Weather Summary

 TemperatureHumidityPressure
High45 °F (Jan 17, 11:34 PM)93% (Jan 18, 9:15 AM)30.46 "Hg (Jan 18, 9:15 AM)
Low9 °F (Jan 27, 5:34 AM)39% (Jan 26, 4:15 PM)29.59 "Hg (Jan 24, 2:15 PM)
Average28 °F75%30.04 "Hg
* Reported Jan 17 8:15 PM — Feb 1 8:34 PM, Toledo, Weather by CustomWeather, © 2014

Note: Actual official high and low records may vary slightly from our data, if they occured in-between our weather recording intervals... More about our weather records

Advertising

Toledo weather history for previous 24 hours

 ConditionsComfort  
Time TempWeatherWind HumidityBarometerVisibility
8:34 PM
Feb 1
21 °FLight snow. Low clouds.10 mph93%29.66 "Hg1 mi
8:15 PM23 °FLight snow. Low clouds.9 mph86%29.66 "Hg1 mi
7:55 PM23 °FSnow. Low clouds.10 mph86%29.68 "Hg1 mi
7:34 PM25 °FSnow. Low clouds.9 mph86%29.70 "Hg1 mi
7:15 PM25 °FSnow. Low clouds.8 mph86%29.70 "Hg1 mi
6:54 PM27 °FSnow. Low clouds.9 mph80%29.71 "Hg1 mi
6:34 PM27 °FSnow. Low clouds.13 mph86%29.72 "Hg1 mi
6:15 PM27 °FSnow. Low clouds.10 mph86%29.73 "Hg1 mi
5:54 PM27 °FSnow. Low clouds.13 mph86%29.75 "Hg1 mi
5:34 PM27 °FSnow. Low clouds.10 mph86%29.76 "Hg0 mi
5:15 PM28 °FSnow. Low clouds.15 mph80%29.77 "Hg1 mi
4:55 PM28 °FSnow. Low clouds.10 mph86%29.77 "Hg0 mi
4:15 PM28 °FSnow. Low clouds.10 mph86%29.79 "Hg0 mi
3:54 PM28 °FSnow. Mostly cloudy.9 mph86%29.80 "Hg1 mi
3:34 PM28 °FLight snow. Low clouds.12 mph80%29.82 "Hg1 mi
3:15 PM27 °FLight snow. Mostly cloudy.12 mph86%29.82 "Hg1 mi
2:54 PM27 °FSnow. Low clouds.12 mph86%29.85 "Hg1 mi
2:34 PM27 °FLight snow. Low clouds.9 mph86%29.87 "Hg1 mi
2:15 PM27 °FSnow. Low clouds.9 mph86%29.88 "Hg1 mi
1:54 PM28 °FSnow. Low clouds.10 mph80%29.90 "Hg1 mi
1:34 PM28 °FSnow. Low clouds.8 mph86%29.92 "Hg1 mi
1:15 PM28 °FSnow. Low clouds.12 mph80%29.94 "Hg1 mi
12:55 PM28 °FSnow. Low clouds.9 mph80%29.95 "Hg1 mi
12:34 PM28 °FSnow. Low clouds.7 mph80%29.98 "Hg1 mi
12:15 PM28 °FSnow. Low clouds.10 mph80%29.99 "Hg1 mi
11:54 AM28 °FLight snow. Low clouds.9 mph80%30.01 "Hg1 mi
11:34 AM28 °FSnow. Low clouds.8 mph80%30.03 "Hg1 mi
11:15 AM28 °FLight snow. Low clouds.12 mph80%30.04 "Hg1 mi
10:54 AM28 °FLight snow. Low clouds.10 mph80%30.05 "Hg2 mi
10:34 AM28 °FLight snow. Low clouds.12 mph80%30.07 "Hg1 mi
10:15 AM28 °FLight snow. Low clouds.7 mph80%30.08 "Hg1 mi
9:55 AM28 °FSnow. Low clouds.5 mph80%30.10 "Hg1 mi
9:34 AM28 °FLight snow. Low clouds.7 mph80%30.11 "Hg1 mi
9:15 AM28 °FLight snow. Low clouds.6 mph86%30.12 "Hg1 mi
8:55 AM28 °FLight snow. Low clouds.10 mph86%30.12 "Hg2 mi
8:34 AM28 °FLight snow. Mostly cloudy.8 mph93%30.13 "Hg2 mi
8:15 AM28 °FLight snow. Low clouds.9 mph93%30.13 "Hg1 mi
7:54 AM28 °FLight snow. Low clouds.7 mph93%30.13 "Hg1 mi
7:34 AM30 °FSnow. Low clouds.6 mph86%30.14 "Hg1 mi
7:15 AM30 °FLight snow. Low clouds.6 mph86%30.15 "Hg1 mi
6:54 AM30 °FLight snow. Low clouds.7 mph86%30.15 "Hg2 mi
6:34 AM30 °FLight snow. Low clouds.9 mph86%30.15 "Hg1 mi
6:15 AM30 °FLight snow. Low clouds.9 mph93%30.15 "Hg2 mi
5:54 AM32 °FLight snow. Low clouds.6 mph87%30.15 "Hg2 mi
5:34 AM32 °FLight snow. Low clouds.5 mph93%30.15 "Hg1 mi
5:15 AM32 °FLight snow. Low clouds.3 mph93%30.15 "Hg2 mi
4:55 AM32 °FLight snow. Mostly cloudy.No wind93%30.15 "Hg2 mi
4:34 AM32 °FLight snow. Mostly cloudy.No wind93%30.15 "Hg2 mi
4:15 AM32 °FLight snow. Overcast.No wind93%30.15 "Hg1 mi
3:54 AM32 °FLight snow. Mostly cloudy.No wind93%30.16 "Hg2 mi
3:34 AM32 °FLight snow. Low clouds.No wind93%30.16 "Hg1 mi
3:15 AM32 °FLight snow. Low clouds.No wind93%30.17 "Hg1 mi
2:54 AM32 °FLight snow. Low clouds.No wind93%30.18 "Hg1 mi
2:34 AM32 °FLight snow. Mostly cloudy.No wind93%30.18 "Hg1 mi
2:15 AM32 °FSnow. Low clouds.No wind93%30.18 "Hg1 mi
1:55 AM32 °FLight snow. Low clouds.No wind93%30.18 "Hg1 mi
1:34 AM32 °FLight snow. Low clouds.No wind93%30.17 "Hg1 mi
1:15 AM32 °FLight snow. Low clouds.No wind93%30.17 "Hg2 mi
12:54 AM32 °FLight snow. Overcast.3 mph93%30.17 "Hg2 mi
12:34 AM32 °FLight snow. Mostly cloudy.3 mph87%30.17 "Hg2 mi
12:15 AM32 °FOvercast.No wind80%30.17 "Hg10 mi
11:54 PM
Jan 31
32 °FOvercast.No wind80%30.17 "Hg10 mi
11:34 PM32 °FOvercast.No wind80%30.17 "Hg10 mi
11:15 PM32 °FOvercast.No wind80%30.18 "Hg10 mi
10:54 PM32 °FOvercast.No wind80%30.18 "Hg10 mi
10:34 PM32 °FOvercast.No wind80%30.18 "Hg10 mi
10:15 PM32 °FOvercast.5 mph80%30.18 "Hg10 mi
9:55 PM32 °FOvercast.No wind80%30.18 "Hg10 mi
9:34 PM32 °FPassing clouds.3 mph80%30.18 "Hg10 mi
9:15 PM32 °FClear.No wind80%30.19 "Hg10 mi
Weather by CustomWeather, © 2014

See weather overviewHow to use our weather pages